Powrót do katalogu

THOR ABLESTAR DEB

AktywnyLEO
NORAD 5716·DEBRIS·🇺🇸 United States

Wystrzelony Jun 29, 1961 z Cape Canaveral Space Force Station

Loading…

Następne Przeloty (najbliższe 24 godziny)

TLE

ŚwieżeSource: Space-Track

Epoka: Sep 13, 2026, 09:10 UTC

1  5716U 61015JT  26256.38212991  .00001511  00000-0  28097-3 0  9995
2  5716  66.6960   7.4960 0071890 306.0875  53.3598 14.66546874373337

Śledź THOR ABLESTAR DEB w czasie rzeczywistym z AllMySat

Download on the App Store